Roseburg, OR

7:23 PM PST on November 16, 2019 (GMT -0800)
Roseburg Regional

Weather History for KRBG - July, 2019

Change the Weather History Date:

Thursday, July 25, 2019

  Actual Average Record
Temperature  
Mean Temperature 74 °F 72 °F  
Max Temperature 93 °F 86 °F 101 °F (2018)
Min Temperature 57 °F 57 °F 46 °F (1966)
Degree Days  
Heating Degree Days 0 0  
Month to date heating degree days 8  
Since 1 June heating degree days 91  
Since 1 July heating degree days 8  
Cooling Degree Days 9 7  
Month to date cooling degree days 134  
Year to date cooling degree days 204  
Since 1 June cooling degree days 184  
Growing Degree Days 24 (Base 50)    
Moisture  
Dew Point 45 °F    
Average Humidity 38    
Maximum Humidity 65    
Minimum Humidity 13    
Precipitation  
Precipitation 0.00 in 0.01 in 0.32 in (1947)
Month to date precipitation 0.36  
Year to date precipitation 19.12  
Sea Level Pressure  
Sea Level Pressure 30.01 in    
Wind  
Wind Speed 4 mph (North)    
Max Wind Speed 15 mph    
Max Gust Speed 22 mph    
Visibility 10 miles    
Events      
T = Trace of Precipitation, MM = Missing Value Source: NWS Daily Summary

Daily Weather History Graph

Daily Weather History Graph

Search for Another Location

Airport or City:

Astronomy

Jul. 25, 2019 Rise Set
Actual Time 5:56 AM PDT 8:42 PM PDT
Civil Twilight 5:23 AM PDT 9:16 PM PDT
Nautical Twilight 4:41 AM PDT 9:57 PM PDT
Astronomical Twilight 3:52 AM PDT 10:46 PM PDT
Moon 12:48 AM PDT (7/25) 2:26 PM PDT (7/25)
Length of Visible Light 15h 52m
Length of Day
14h 46m
Last Quarter, 43% of the Moon is Illuminated
Jul 25
Last Quarter
Jul 31
New
Aug 7
First Quarter
Aug 15
Full
Aug 23
Last Quarter

Hourly Weather History & Observations

Time (PDT) Temp. Dew Point Humidity Pressure Visibility Wind Dir Wind Speed Gust Speed Precip Events Conditions
12:53 AM 66.9 °F 44.1 °F 44% 30.08 in 10.0 mi Calm Calm - N/A   Clear
1:53 AM 63.0 °F 45.0 °F 52% 30.08 in 10.0 mi Calm Calm - N/A   Clear
2:53 AM 63.0 °F 46.0 °F 54% 30.07 in 10.0 mi Calm Calm - N/A   Clear
3:53 AM 59.0 °F 46.0 °F 62% 30.07 in 10.0 mi Calm Calm - N/A   Clear
4:53 AM 59.0 °F 46.0 °F 62% 30.07 in 10.0 mi Calm Calm - N/A   Clear
5:53 AM 57.9 °F 46.0 °F 65% 30.08 in 10.0 mi Calm Calm - N/A   Clear
6:53 AM 57.9 °F 46.0 °F 65% 30.09 in 10.0 mi Calm Calm - N/A   Clear
7:53 AM 64.9 °F 50.0 °F 58% 30.09 in 10.0 mi North 5.8 mph - N/A   Clear
8:53 AM 66.9 °F 51.1 °F 57% 30.09 in 10.0 mi NNE 8.1 mph - N/A   Clear
9:53 AM 71.1 °F 50.0 °F 47% 30.07 in 10.0 mi North 8.1 mph - N/A   Clear
10:53 AM 73.9 °F 50.0 °F 43% 30.06 in 10.0 mi North 10.4 mph - N/A   Clear
11:53 AM 78.1 °F 51.1 °F 39% 30.04 in 10.0 mi North 10.4 mph - N/A   Clear
12:53 PM 82.0 °F 50.0 °F 33% 30.02 in 10.0 mi North 8.1 mph - N/A   Clear
1:53 PM 86.0 °F 48.0 °F 27% 29.99 in 10.0 mi North 9.2 mph 17.3 mph N/A   Clear
2:53 PM 91.0 °F 46.9 °F 22% 29.97 in 10.0 mi North 15.0 mph - N/A   Clear
3:53 PM 91.0 °F 46.0 °F 21% 29.95 in 10.0 mi North 11.5 mph 17.3 mph N/A   Clear
4:53 PM 91.9 °F 41.0 °F 17% 29.93 in 10.0 mi North 15.0 mph 20.7 mph N/A   Clear
5:53 PM 91.9 °F 34.0 °F 13% 29.92 in 10.0 mi North 12.7 mph 20.7 mph N/A   Clear
6:53 PM 91.9 °F 34.0 °F 13% 29.91 in 10.0 mi North 13.8 mph 21.9 mph N/A   Clear
7:53 PM 89.1 °F 33.1 °F 14% 29.93 in 10.0 mi North 13.8 mph - N/A   Clear
8:53 PM 86.0 °F 33.1 °F 15% 29.93 in 10.0 mi North 3.5 mph - N/A   Clear
9:53 PM 79.0 °F 39.0 °F 24% 29.95 in 10.0 mi Calm Calm - N/A   Clear
10:53 PM 75.0 °F 46.9 °F 37% 29.95 in 10.0 mi Calm Calm - N/A   Clear
11:53 PM 73.0 °F 46.9 °F 39% 29.96 in 10.0 mi Calm Calm - N/A   Clear